Location: Sternwarte Stuttgart
(48.7670°N, 9.1830°E)
Time: 06:07:11
(UTC+01:00)

Iridium 96 - Pass Details

Date: 24 January 2019
Orbit: 281 x 589 km, 86.4° (Epoch: 22 February)

Event Time Altitude Azimuth Distance (km) Brightness Sun altitude
Exits shadow 06:45:26 - 359° (N) 2,014 7.5 -12.7°
Rises 06:45:29 0° 359° (N) 1,993 7.5 -12.7°
Reaches altitude 10° 06:47:18 10° 3° (N) 1,191 6.4 -12.4°
Maximum altitude 06:49:49 61° 85° (E) 367 4.2 -12.0°
Drops below altitude 10° 06:52:31 10° 168° (SSE) 1,282 7.1 -11.6°
Sets 06:54:33 0° 172° (S) 2,171 8.2 -11.3°
